sat.trackr.live / text

‹ back to catalog

ION SCV-018

NORAD 64575 · 2025-135AZ

PAYLOAD ACTIVE UNKNOWN

§ Identity

Operator
Country
IT
Launch date
2025-06-23
Launch site
AFWTR
Launch vehicle
Mass (kg)
RCS (m²)

External: N2YO · Heavens-Above · Gunter

§ Orbital elements

Epoch: 2026-09-21T21:18:00.806112Z

Period
96.33 min
Inclination
97.7864°
Eccentricity
0.0011923
Mean motion
14.94792395 rev/d
Perigee alt
574.7 km
Apogee alt
591.3 km
Semi-major
6,961.2 km
B*
3.7355e-5
RAAN
19.1583°
Arg perigee
337.0035°
Mean anomaly
23.0650°
Rev number
6,837

§ Raw data

ION SCV-0181 64575U 25135AZ  26264.88750933  .00000348  00000+0  37355-4 0  99972 64575  97.7864  19.1583 0011923 337.0035  23.0650 14.94792395 68377

JSON: /api/v1/satellites/64575 · /tle

For live sub-satellite position, see the globe view (requires WebGL).

§ Visibility from observer

Set your observer location to see the next 7 days of passes ≥ 10°. The values pass through the URL so the page stays shareable.

No JS? Fill the form by hand. The geolocation button needs JavaScript.

§ Radio — SatNOGS DB

ModeDescriptionDownlinkUplink
FSK AX.100 Mode 5 Mode U - FSK1k2 AX.100 401.415 MHz

1 transmitter · refreshed weekly from db.satnogs.org